| time (UTC) | temp C | wind direction | speed KPH | gust KPH | rain 1hr cm | rain 24hr cm | rain mn cm | humidity % | barometer mb |
| 20260901113012 | 20 | 303 | 8.0 | 19.3 | 0.00 | 1.65 | 0.00 | 78 | 1012.3 |
| 20260901112512 | 20 | 286 | 9.7 | 19.3 | 0.00 | 1.65 | 0.00 | 79 | 1012.3 |
| 20260901112011 | 20 | 246 | 9.7 | 19.3 | 0.00 | 1.65 | 0.00 | 78 | 1012.3 |
| 20260901111522 | 19 | 326 | 9.7 | 19.3 | 0.00 | 1.65 | 0.00 | 79 | 1012.4 |
| 20260901111016 | 20 | 263 | 9.7 | 19.3 | 0.00 | 1.65 | 0.00 | 79 | 1012.3 |
| 20260901110512 | 20 | 249 | 11.3 | 19.3 | 0.00 | 1.65 | 0.00 | 82 | 1012.3 |
| 20260901110027 | 18 | 313 | 11.3 | 20.9 | 0.00 | 1.70 | 0.00 | 82 | 1012.3 |
| 20260901105520 | 18 | 259 | 12.9 | 20.9 | 0.00 | 1.88 | 0.00 | 79 | 1012.2 |
| 20260901105004 | 19 | 305 | 11.3 | 24.1 | 0.00 | 2.16 | 0.00 | 80 | 1012.1 |
| 20260901104508 | 19 | 276 | 11.3 | 24.1 | 0.00 | 2.24 | 0.00 | 79 | 1012.1 |
| 20260901104008 | 19 | 252 | 14.5 | 20.9 | 0.00 | 2.24 | 0.00 | 82 | 1012.0 |
| 20260901103509 | 18 | 238 | 8.0 | 20.9 | 0.00 | 2.24 | 0.00 | 82 | 1012.0 |
| 20260901103014 | 18 | 258 | 9.7 | 20.9 | 0.00 | 2.24 | 0.00 | 81 | 1012.0 |
| 20260901102512 | 19 | 295 | 12.9 | 24.1 | 0.00 | 2.24 | 0.00 | 78 | 1011.9 |
| 20260901102012 | 18 | 298 | 6.4 | 24.1 | 0.00 | 2.24 | 0.00 | 81 | 1011.9 |
| 20260901101523 | 19 | 271 | 11.3 | 20.9 | 0.00 | 2.24 | 0.00 | 82 | 1011.8 |
| 20260901101018 | 18 | 277 | 9.7 | 20.9 | 0.00 | 2.24 | 0.00 | 86 | 1011.8 |
| 20260901100519 | 17 | 269 | 8.0 | 20.9 | 0.00 | 2.24 | 0.00 | 86 | 1011.8 |
| 20260901100027 | 17 | 232 | 9.7 | 19.3 | 0.00 | 2.24 | 0.00 | 85 | 1011.8 |
| 20260901095516 | 17 | 240 | 9.7 | 19.3 | 0.00 | 2.24 | 0.00 | 84 | 1011.7 |
| 20260901095008 | 17 | 247 | 12.9 | 19.3 | 0.00 | 2.24 | 0.00 | 83 | 1011.7 |
| 20260901094512 | 18 | 276 | 11.3 | 16.1 | 0.00 | 2.24 | 0.00 | 84 | 1011.7 |
| 20260901094010 | 18 | 280 | 6.4 | 17.7 | 0.00 | 2.24 | 0.00 | 85 | 1011.6 |
| 20260901093510 | 17 | 286 | 8.0 | 17.7 | 0.00 | 2.24 | 0.00 | 85 | 1011.6 |
| 20260901093017 | 18 | 252 | 12.9 | 17.7 | 0.00 | 2.24 | 0.00 | 85 | 1011.5 |
| 20260901092513 | 18 | 240 | 9.7 | 19.3 | 0.00 | 2.24 | 0.00 | 85 | 1011.5 |
| 20260901092015 | 18 | 236 | 14.5 | 19.3 | 0.00 | 2.24 | 0.00 | 85 | 1011.5 |
| 20260901091524 | 17 | 266 | 9.7 | 14.5 | 0.00 | 2.24 | 0.00 | 87 | 1011.5 |
| 20260901091016 | 17 | 268 | 9.7 | 17.7 | 0.00 | 2.24 | 0.00 | 87 | 1011.4 |
| 20260901090516 | 17 | 254 | 6.4 | 17.7 | 0.00 | 2.24 | 0.00 | 88 | 1011.4 |
| 20260901090032 | 17 | 284 | 6.4 | 16.1 | 0.00 | 2.24 | 0.00 | 88 | 1011.3 |
| 20260901085518 | 17 | 237 | 8.0 | 17.7 | 0.00 | 2.24 | 0.00 | 88 | 1011.2 |
| 20260901085008 | 17 | 252 | 11.3 | 17.7 | 0.00 | 2.24 | 0.00 | 87 | 1011.2 |
| 20260901084514 | 17 | 250 | 8.0 | 16.1 | 0.00 | 2.24 | 0.00 | 86 | 1011.1 |
| 20260901084010 | 17 | 271 | 6.4 | 16.1 | 0.00 | 2.24 | 0.00 | 90 | 1011.1 |
| 20260901083515 | 17 | 288 | 8.0 | 16.1 | 0.00 | 2.24 | 0.00 | 88 | 1011.0 |
| 20260901083021 | 17 | 271 | 6.4 | 17.7 | 0.00 | 2.24 | 0.00 | 89 | 1010.8 |
| 20260901082516 | 17 | 318 | 9.7 | 22.5 | 0.00 | 2.24 | 0.00 | 89 | 1010.7 |
| 20260901082016 | 16 | 248 | 8.0 | 22.5 | 0.00 | 2.24 | 0.00 | 88 | 1010.6 |
| 20260901081528 | 17 | 254 | 11.3 | 17.7 | 0.00 | 2.24 | 0.00 | 88 | 1010.6 |
| 20260901081014 | 17 | 265 | 8.0 | 14.5 | 0.00 | 2.24 | 0.00 | 89 | 1010.6 |
| 20260901080516 | 17 | 265 | 6.4 | 17.7 | 0.00 | 2.24 | 0.00 | 89 | 1010.5 |
| 20260901080040 | 17 | 284 | 12.9 | 17.7 | 0.00 | 2.24 | 0.00 | 87 | 1010.4 |
| 20260901075507 | 17 | 271 | 8.0 | 17.7 | 0.00 | 2.26 | 0.00 | 90 | 1010.3 |
| 20260901075015 | 17 | 241 | 6.4 | 19.3 | 0.00 | 2.31 | 0.00 | 91 | 1010.3 |
| 20260901074516 | 17 | 254 | 11.3 | 19.3 | 0.00 | 2.31 | 0.00 | 90 | 1010.2 |
| 20260901074012 | 17 | 250 | 6.4 | 14.5 | 0.00 | 2.31 | 0.00 | 92 | 1010.1 |
| 20260901073511 | 16 | 297 | 4.8 | 14.5 | 0.00 | 2.31 | 0.00 | 93 | 1010.1 |
| 20260901073035 | 16 | 268 | 4.8 | 12.9 | 0.00 | 2.31 | 0.00 | 92 | 1010.1 |
| 20260901072513 | 16 | 266 | 4.8 | 16.1 | 0.00 | 2.31 | 0.00 | 93 | 1010.1 |
| 20260901072016 | 16 | 276 | 6.4 | 16.1 | 0.00 | 2.31 | 0.00 | 93 | 1010.1 |
| 20260901071528 | 16 | 284 | 6.4 | 12.9 | 0.00 | 2.31 | 0.00 | 94 | 1010.2 |
| 20260901071019 | 16 | 296 | 4.8 | 19.3 | 0.00 | 2.31 | 0.00 | 94 | 1010.1 |
| 20260901070518 | 16 | 259 | 6.4 | 19.3 | 0.00 | 2.31 | 0.00 | 94 | 1010.0 |
| 20260901070032 | 16 | 255 | 8.0 | 16.1 | 0.00 | 2.31 | 0.00 | 94 | 1010.0 |
| 20260901065512 | 16 | 243 | 9.7 | 16.1 | 0.00 | 2.31 | 0.00 | 94 | 1010.0 |
| 20260901065010 | 16 | 262 | 11.3 | 16.1 | 0.00 | 2.31 | 0.00 | 94 | 1009.9 |
| 20260901064518 | 16 | 236 | 6.4 | 11.3 | 0.00 | 2.31 | 0.00 | 95 | 1009.9 |
| 20260901064015 | 15 | 259 | 8.0 | 12.9 | 0.00 | 2.31 | 0.00 | 95 | 1009.7 |
| 20260901063514 | 15 | 266 | 8.0 | 12.9 | 0.00 | 2.31 | 0.00 | 95 | 1009.6 |
| 20260901063028 | 15 | 264 | 6.4 | 16.1 | 0.00 | 2.31 | 0.00 | 95 | 1009.6 |
| 20260901062514 | 15 | 257 | 9.7 | 16.1 | 0.00 | 2.31 | 0.00 | 95 | 1009.6 |
| 20260901062016 | 15 | 250 | 3.2 | 9.7 | 0.00 | 2.31 | 0.00 | 95 | 1009.6 |
| 20260901061532 | 15 | 257 | 4.8 | 9.7 | 0.00 | 2.31 | 0.00 | 95 | 1009.5 |
| 20260901061019 | 15 | 236 | 4.8 | 9.7 | 0.00 | 2.31 | 0.00 | 95 | 1009.5 |
| 20260901060519 | 15 | 242 | 6.4 | 11.3 | 0.00 | 2.31 | 0.00 | 95 | 1009.6 |
| 20260901060034 | 15 | 264 | 8.0 | 11.3 | 0.00 | 2.31 | 0.00 | 95 | 1009.5 |
| 20260901055513 | 15 | 250 | 3.2 | 9.7 | 0.00 | 2.31 | 0.00 | 95 | 1009.6 |
| 20260901055015 | 15 | 241 | 4.8 | 8.0 | 0.00 | 2.31 | 0.00 | 95 | 1009.6 |
| 20260901054521 | 15 | 248 | 4.8 | 6.4 | 0.00 | 2.31 | 0.00 | 95 | 1009.5 |
| 20260901054014 | 15 | 250 | 3.2 | 8.0 | 0.00 | 2.31 | 0.00 | 95 | 1009.4 |
| 20260901053515 | 15 | 257 | 3.2 | 8.0 | 0.00 | 2.31 | 0.00 | 95 | 1009.4 |
| 20260901053030 | 15 | 235 | 4.8 | 6.4 | 0.00 | 2.31 | 0.00 | 95 | 1009.3 |
| 20260901052518 | 14 | 257 | 3.2 | 6.4 | 0.00 | 2.31 | 0.00 | 95 | 1009.3 |
| 20260901052019 | 14 | 239 | 4.8 | 6.4 | 0.00 | 2.31 | 0.00 | 95 | 1009.3 |
| 20260901051531 | 14 | 248 | 3.2 | 6.4 | 0.00 | 2.31 | 0.00 | 95 | 1009.3 |
| 20260901051018 | 14 | 251 | 4.8 | 6.4 | 0.00 | 2.31 | 0.00 | 95 | 1009.3 |
| 20260901050519 | 14 | 245 | 3.2 | 6.4 | 0.00 | 2.31 | 0.00 | 95 | 1009.2 |
| 20260901050020 | 14 | 236 | 1.6 | 6.4 | 0.00 | 2.31 | 0.00 | 95 | 1009.2 |
| 20260901045513 | 14 | 242 | 3.2 | 6.4 | 0.00 | 2.31 | 0.00 | 95 | 1009.2 |
| 20260901045014 | 13 | 254 | 3.2 | 6.4 | 0.00 | 2.31 | 0.00 | 95 | 1009.1 |
| 20260901044524 | 13 | 241 | 4.8 | 6.4 | 0.00 | 2.31 | 0.00 | 95 | 1009.1 |
| 20260901044016 | 13 | 247 | 3.2 | 6.4 | 0.00 | 2.31 | 0.00 | 95 | 1009.0 |
| 20260901043517 | 13 | 241 | 3.2 | 6.4 | 0.00 | 2.31 | 0.00 | 95 | 1009.0 |
| 20260901043032 | 13 | 247 | 3.2 | 6.4 | 0.00 | 2.31 | 0.00 | 95 | 1008.9 |
| 20260901042518 | 13 | 246 | 3.2 | 8.0 | 0.00 | 2.31 | 0.00 | 95 | 1008.9 |
| 20260901042018 | 13 | 229 | 4.8 | 8.0 | 0.00 | 2.31 | 0.00 | 95 | 1008.9 |
| 20260901041543 | 13 | 240 | 3.2 | 4.8 | 0.00 | 2.31 | 0.00 | 94 | 1008.9 |
| 20260901041019 | 13 | 240 | 1.6 | 6.4 | 0.00 | 2.31 | 0.00 | 94 | 1008.9 |
| 20260901040519 | 13 | 261 | 3.2 | 6.4 | 0.00 | 2.31 | 0.00 | 94 | 1008.8 |
| 20260901040024 | 13 | 228 | 3.2 | 6.4 | 0.00 | 2.31 | 0.00 | 94 | 1008.8 |
| 20260901035516 | 13 | 259 | 3.2 | 4.8 | 0.00 | 2.31 | 0.00 | 94 | 1008.7 |
| 20260901035017 | 13 | 246 | 3.2 | 6.4 | 0.00 | 2.31 | 0.00 | 94 | 1008.8 |
| 20260901034504 | 13 | 254 | 3.2 | 6.4 | 0.00 | 2.31 | 0.00 | 94 | 1008.7 |
| 20260901034004 | 13 | 251 | 3.2 | 4.8 | 0.00 | 2.31 | 0.00 | 94 | 1008.7 |
| 20260901033508 | 13 | 252 | 3.2 | 4.8 | 0.00 | 2.31 | 0.00 | 94 | 1008.7 |
| 20260901033013 | 13 | 234 | 1.6 | 4.8 | 0.00 | 2.31 | 0.00 | 94 | 1008.7 |
| 20260901032508 | 13 | 208 | 1.6 | 4.8 | 0.00 | 2.31 | 0.00 | 94 | 1008.8 |
| 20260901032008 | 13 | 234 | 3.2 | 4.8 | 0.00 | 2.31 | 0.00 | 94 | 1008.7 |
| 20260901031516 | 13 | 254 | 3.2 | 3.2 | 0.00 | 2.31 | 0.00 | 94 | 1008.7 |
| 20260901031011 | 13 | 205 | 3.2 | 3.2 | 0.00 | 2.31 | 0.00 | 94 | 1008.7 |
| 20260901030514 | 12 | 227 | 1.6 | 3.2 | 0.00 | 2.31 | 0.00 | 94 | 1008.6 |
| 20260901030024 | 12 | 215 | 1.6 | 3.2 | 0.00 | 2.31 | 0.00 | 94 | 1008.7 |
| 20260901025517 | 12 | 233 | 0.0 | 6.4 | 0.00 | 2.31 | 0.00 | 94 | 1008.6 |
| 20260901025003 | 12 | 248 | 1.6 | 6.4 | 0.00 | 2.31 | 0.00 | 94 | 1008.6 |
| 20260901024507 | 12 | 245 | 4.8 | 6.4 | 0.00 | 2.31 | 0.00 | 94 | 1008.6 |
| 20260901024004 | 12 | 250 | 3.2 | 4.8 | 0.00 | 2.31 | 0.00 | 94 | 1008.6 |
| 20260901023508 | 13 | 245 | 3.2 | 4.8 | 0.00 | 2.31 | 0.00 | 94 | 1008.6 |
| 20260901023013 | 13 | 242 | 3.2 | 4.8 | 0.00 | 2.31 | 0.00 | 94 | 1008.7 |
| 20260901022508 | 12 | 221 | 1.6 | 4.8 | 0.00 | 2.31 | 0.00 | 94 | 1008.7 |
| 20260901022008 | 12 | 232 | 0.0 | 4.8 | 0.00 | 2.31 | 0.00 | 94 | 1008.7 |
| 20260901021524 | 12 | 242 | 1.6 | 6.4 | 0.00 | 2.31 | 0.00 | 94 | 1008.7 |
| 20260901021014 | 12 | 250 | 3.2 | 6.4 | 0.00 | 2.31 | 0.00 | 94 | 1008.6 |
| 20260901020513 | 12 | 250 | 1.6 | 6.4 | 0.00 | 2.31 | 0.00 | 94 | 1008.6 |
| 20260901020025 | 13 | 242 | 3.2 | 4.8 | 0.00 | 2.31 | 0.00 | 94 | 1008.5 |
| 20260901015516 | 13 | 211 | 1.6 | 6.4 | 0.00 | 2.31 | 0.00 | 94 | 1008.4 |
| 20260901015003 | 13 | 239 | 3.2 | 8.0 | 0.00 | 2.31 | 0.00 | 94 | 1008.5 |
| 20260901014505 | 13 | 246 | 4.8 | 8.0 | 0.00 | 2.31 | 0.00 | 94 | 1008.4 |
| 20260901014003 | 13 | 248 | 4.8 | 6.4 | 0.00 | 2.31 | 0.00 | 94 | 1008.4 |
| 20260901013509 | 13 | 234 | 4.8 | 8.0 | 0.00 | 2.31 | 0.00 | 94 | 1008.4 |
| 20260901013012 | 13 | 244 | 3.2 | 11.3 | 0.00 | 2.31 | 0.00 | 94 | 1008.3 |
| 20260901012508 | 13 | 247 | 4.8 | 11.3 | 0.00 | 2.31 | 0.00 | 94 | 1008.3 |
| 20260901012014 | 13 | 251 | 4.8 | 11.3 | 0.00 | 2.31 | 0.00 | 94 | 1008.3 |
| 20260901011529 | 13 | 240 | 6.4 | 11.3 | 0.00 | 2.31 | 0.00 | 94 | 1008.3 |
| 20260901011017 | 13 | 235 | 4.8 | 8.0 | 0.00 | 2.31 | 0.00 | 94 | 1008.3 |
| 20260901010516 | 13 | 247 | 4.8 | 12.9 | 0.00 | 2.31 | 0.00 | 94 | 1008.3 |
| 20260901010039 | 13 | 234 | 6.4 | 12.9 | 0.00 | 2.31 | 0.00 | 94 | 1008.3 |
| 20260901005519 | 13 | 229 | 4.8 | 8.0 | 0.00 | 2.31 | 0.00 | 94 | 1008.3 |
| 20260901005008 | 13 | 249 | 4.8 | 8.0 | 0.00 | 2.31 | 0.00 | 94 | 1008.3 |
| 20260901004508 | 13 | 250 | 4.8 | 8.0 | 0.00 | 2.31 | 0.00 | 94 | 1008.3 |
| 20260901004008 | 13 | 248 | 4.8 | 8.0 | 0.00 | 2.31 | 0.00 | 94 | 1008.3 |
| 20260901003508 | 13 | 247 | 4.8 | 8.0 | 0.00 | 2.31 | 0.00 | 94 | 1008.3 |
| 20260901003020 | 13 | 244 | 3.2 | 6.4 | 0.00 | 2.31 | 0.00 | 94 | 1008.3 |
| 20260901002510 | 13 | 236 | 3.2 | 8.0 | 0.00 | 2.34 | 0.00 | 94 | 1008.2 |
| 20260901002018 | 13 | 243 | 4.8 | 8.0 | 0.00 | 2.34 | 0.00 | 94 | 1008.2 |
| 20260901001527 | 13 | 243 | 3.2 | 6.4 | 0.00 | 2.34 | 0.00 | 94 | 1008.2 |
| 20260901001013 | 13 | 252 | 4.8 | 6.4 | 0.00 | 2.34 | 0.00 | 94 | 1008.2 |
| 20260901000516 | 13 | 238 | 4.8 | 6.4 | 0.00 | 2.34 | 0.00 | 94 | 1008.2 |
| 20260901000029 | 13 | 219 | 3.2 | 4.8 | 0.00 | 2.34 | 0.00 | 94 | 1008.2 |
| 20260831235504 | 13 | 227 | 1.6 | 4.8 | 0.00 | 2.34 | 0.00 | 94 | 1008.2 |
| 20260831235006 | 13 | 240 | 1.6 | 4.8 | 0.00 | 2.34 | 0.00 | 94 | 1008.1 |
| 20260831234512 | 13 | 212 | 1.6 | 4.8 | 0.00 | 2.34 | 0.00 | 94 | 1008.1 |
| 20260831234010 | 13 | 200 | 1.6 | 4.8 | 0.00 | 2.34 | 0.00 | 94 | 1008.2 |
| 20260831233511 | 13 | 184 | 3.2 | 4.8 | 0.00 | 2.34 | 0.00 | 94 | 1008.2 |
| 20260831233033 | 13 | 186 | 1.6 | 4.8 | 0.00 | 2.34 | 0.00 | 94 | 1008.2 |
| 20260831232514 | 13 | 230 | 1.6 | 6.4 | 0.00 | 2.34 | 0.00 | 94 | 1008.2 |
| 20260831232017 | 13 | 234 | 3.2 | 6.4 | 0.00 | 2.34 | 0.00 | 94 | 1008.1 |
| 20260831231535 | 13 | 246 | 3.2 | 6.4 | 0.00 | 2.34 | 0.00 | 94 | 1008.1 |
| 20260831231014 | 13 | 246 | 3.2 | 8.0 | 0.00 | 2.34 | 0.00 | 94 | 1008.1 |
| 20260831230514 | 13 | 254 | 4.8 | 8.0 | 0.00 | 2.34 | 0.00 | 93 | 1008.1 |
| 20260831230030 | 13 | 247 | 1.6 | 4.8 | 0.00 | 2.34 | 0.00 | 94 | 1008.1 |
| 20260831225507 | 14 | 238 | 3.2 | 4.8 | 0.00 | 2.34 | 0.00 | 94 | 1008.2 |
| 20260831225008 | 14 | 215 | 1.6 | 4.8 | 0.00 | 2.34 | 0.00 | 94 | 1008.2 |
| 20260831224514 | 14 | 237 | 3.2 | 4.8 | 0.00 | 2.34 | 0.00 | 94 | 1008.3 |
| 20260831224010 | 14 | 181 | 1.6 | 4.8 | 0.00 | 2.34 | 0.00 | 94 | 1008.2 |
| 20260831223511 | 14 | 214 | 1.6 | 4.8 | 0.00 | 2.34 | 0.00 | 94 | 1008.2 |
| 20260831223022 | 14 | 224 | 1.6 | 4.8 | 0.00 | 2.34 | 0.00 | 94 | 1008.3 |
| 20260831222514 | 14 | 252 | 3.2 | 4.8 | 0.00 | 2.34 | 0.00 | 94 | 1008.2 |
| 20260831222014 | 14 | 234 | 1.6 | 4.8 | 0.00 | 2.34 | 0.00 | 94 | 1008.2 |
| 20260831221534 | 14 | 242 | 0.0 | 3.2 | 0.00 | 2.34 | 0.00 | 94 | 1008.2 |
| 20260831221014 | 14 | 246 | 1.6 | 3.2 | 0.00 | 2.34 | 0.00 | 94 | 1008.3 |
| 20260831220516 | 14 | 239 | 1.6 | 6.4 | 0.00 | 2.34 | 0.00 | 94 | 1008.2 |
| 20260831220012 | 14 | 239 | 1.6 | 6.4 | 0.00 | 2.34 | 0.00 | 94 | 1008.3 |
| 20260831215506 | 14 | 229 | 1.6 | 6.4 | 0.00 | 2.34 | 2.34 | 94 | 1008.2 |
| 20260831215008 | 13 | 186 | 1.6 | 3.2 | 0.00 | 2.34 | 2.34 | 94 | 1008.2 |
| 20260831214517 | 13 | 221 | 1.6 | 3.2 | 0.00 | 2.34 | 2.34 | 94 | 1008.2 |
| 20260831214010 | 13 | 216 | 0.0 | 3.2 | 0.00 | 2.34 | 2.34 | 93 | 1008.1 |
| 20260831213511 | 13 | 216 | 1.6 | 3.2 | 0.00 | 2.34 | 2.34 | 94 | 1008.2 |
| 20260831213026 | 13 | 205 | 1.6 | 3.2 | 0.00 | 2.34 | 2.34 | 94 | 1008.2 |
| 20260831212515 | 13 | 198 | 1.6 | 3.2 | 0.00 | 2.34 | 2.34 | 93 | 1008.1 |
| 20260831212015 | 13 | 235 | 1.6 | 3.2 | 0.00 | 2.34 | 2.34 | 93 | 1008.1 |
| 20260831211527 | 13 | 235 | 0.0 | 3.2 | 0.00 | 2.34 | 2.34 | 93 | 1008.0 |
| 20260831211017 | 13 | 235 | 1.6 | 3.2 | 0.00 | 2.34 | 2.34 | 93 | 1008.0 |
| 20260831210515 | 13 | 249 | 0.0 | 3.2 | 0.00 | 2.34 | 2.34 | 93 | 1008.0 |
| 20260831210011 | 13 | 244 | 1.6 | 3.2 | 0.00 | 2.34 | 2.34 | 93 | 1007.9 |
| 20260831205510 | 13 | 233 | 1.6 | 3.2 | 0.00 | 2.34 | 2.34 | 1007.9 | |
| 20260831205014 | 13 | 227 | 0.0 | 4.8 | 0.00 | 2.34 | 2.34 | 93 | 1007.9 |
| 20260831204518 | 14 | 229 | 1.6 | 4.8 | 0.00 | 2.34 | 2.34 | 93 | 1007.9 |
| 20260831204014 | 14 | 224 | 1.6 | 4.8 | 0.00 | 2.34 | 2.34 | 93 | 1007.8 |
| 20260831203512 | 14 | 214 | 1.6 | 4.8 | 0.00 | 2.34 | 2.34 | 93 | 1007.9 |
| 20260831203025 | 14 | 210 | 1.6 | 4.8 | 0.00 | 2.34 | 2.34 | 93 | 1008.0 |
| 20260831202515 | 14 | 210 | 1.6 | 4.8 | 0.00 | 2.34 | 2.34 | 93 | 1008.0 |
| 20260831202015 | 14 | 235 | 1.6 | 4.8 | 0.00 | 2.34 | 2.34 | 93 | 1007.9 |
| 20260831201533 | 14 | 231 | 1.6 | 4.8 | 0.00 | 2.34 | 2.34 | 93 | 1007.9 |
| 20260831201017 | 14 | 231 | 1.6 | 4.8 | 0.00 | 2.34 | 2.34 | 93 | 1007.9 |
| 20260831200516 | 14 | 215 | 1.6 | 4.8 | 0.00 | 2.34 | 2.34 | 93 | 1007.9 |
| 20260831200016 | 13 | 205 | 1.6 | 3.2 | 0.00 | 2.34 | 2.34 | 93 | 1007.8 |
| 20260831195510 | 13 | 227 | 1.6 | 4.8 | 0.00 | 2.34 | 2.34 | 93 | 1007.8 |
| 20260831195013 | 13 | 219 | 1.6 | 4.8 | 0.00 | 2.34 | 2.34 | 93 | 1007.8 |
| 20260831194523 | 14 | 218 | 1.6 | 4.8 | 0.00 | 2.34 | 2.34 | 93 | 1007.8 |
| 20260831194015 | 13 | 235 | 1.6 | 4.8 | 0.00 | 2.34 | 2.34 | 93 | 1007.8 |
| 20260831193514 | 13 | 267 | 3.2 | 8.0 | 0.00 | 2.34 | 2.34 | 93 | 1007.8 |
| 20260831193034 | 14 | 229 | 1.6 | 8.0 | 0.00 | 2.34 | 2.34 | 93 | 1007.8 |
| 20260831192518 | 14 | 175 | 1.6 | 4.8 | 0.00 | 2.34 | 2.34 | 1007.9 | |
| 20260831192017 | 14 | 178 | 1.6 | 4.8 | 0.00 | 2.34 | 2.34 | 1007.8 | |
| 20260831191531 | 13 | 181 | 1.6 | 4.8 | 0.00 | 2.34 | 2.34 | 92 | 1007.8 |
| 20260831191016 | 13 | 193 | 1.6 | 3.2 | 0.00 | 2.34 | 2.34 | 92 | 1007.6 |
| 20260831190510 | 14 | 230 | 1.6 | 3.2 | 0.00 | 2.34 | 2.34 | 92 | 1007.6 |
| 20260831190018 | 14 | 186 | 1.6 | 3.2 | 0.00 | 2.34 | 2.34 | 92 | 1007.5 |
| 20260831185502 | 14 | 186 | 0.0 | 3.2 | 0.00 | 2.34 | 2.34 | 92 | 1007.4 |
| 20260831185002 | 15 | 185 | 0.0 | 4.8 | 0.00 | 2.34 | 2.34 | 92 | 1007.3 |
| 20260831184504 | 14 | 186 | 3.2 | 4.8 | 0.00 | 2.34 | 2.34 | 92 | 1007.3 |
| 20260831184003 | 14 | 195 | 1.6 | 3.2 | 0.00 | 2.34 | 2.34 | 91 | 1007.4 |
| 20260831183503 | 14 | 182 | 1.6 | 4.8 | 0.00 | 2.34 | 2.34 | 91 | 1007.3 |
| 20260831183004 | 15 | 182 | 1.6 | 4.8 | 0.00 | 2.34 | 2.34 | 91 | 1007.4 |
| 20260831182507 | 15 | 180 | 1.6 | 4.8 | 0.00 | 2.34 | 2.34 | 91 | 1007.4 |
| 20260831182006 | 15 | 172 | 1.6 | 6.4 | 0.00 | 2.34 | 2.34 | 91 | 1007.3 |
| 20260831181506 | 15 | 169 | 1.6 | 6.4 | 0.00 | 2.34 | 2.34 | 91 | 1007.4 |
| 20260831181004 | 15 | 187 | 3.2 | 4.8 | 0.00 | 2.34 | 2.34 | 91 | 1007.4 |
| 20260831180504 | 15 | 179 | 1.6 | 6.4 | 0.00 | 2.34 | 2.34 | 91 | 1007.4 |
| 20260831180005 | 15 | 188 | 3.2 | 6.4 | 0.00 | 2.34 | 2.34 | 91 | 1007.4 |
| 20260831175504 | 16 | 184 | 1.6 | 3.2 | 0.00 | 2.34 | 2.34 | 90 | 1007.2 |
| 20260831175003 | 16 | 178 | 1.6 | 3.2 | 0.00 | 2.34 | 2.34 | 90 | 1007.2 |
| 20260831174511 | 16 | 177 | 0.0 | 3.2 | 0.00 | 2.34 | 2.34 | 90 | 1007.1 |
| 20260831174002 | 16 | 182 | 1.6 | 3.2 | 0.00 | 2.36 | 2.34 | 90 | 1007.2 |
| 20260831173503 | 16 | 182 | 0.0 | 3.2 | 0.00 | 2.36 | 2.34 | 91 | 1007.2 |
| 20260831173013 | 16 | 182 | 0.0 | 3.2 | 0.00 | 2.36 | 2.34 | 90 | 1007.2 |
| 20260831172502 | 16 | 225 | 0.0 | 3.2 | 0.00 | 2.36 | 2.34 | 90 | 1007.2 |
| 20260831172003 | 16 | 225 | 0.0 | 3.2 | 0.00 | 2.39 | 2.34 | 90 | 1007.2 |
| 20260831171506 | 16 | 225 | 0.0 | 3.2 | 0.00 | 2.39 | 2.34 | 90 | 1007.2 |
| 20260831171003 | 16 | 225 | 0.0 | 3.2 | 0.00 | 2.39 | 2.34 | 91 | 1007.1 |
| 20260831170503 | 16 | 225 | 1.6 | 3.2 | 0.00 | 2.39 | 2.34 | 90 | 1007.2 |
| 20260831170013 | 16 | 182 | 1.6 | 3.2 | 0.00 | 2.41 | 2.34 | 91 | 1007.2 |
| 20260831165506 | 16 | 182 | 1.6 | 3.2 | 0.00 | 2.41 | 2.34 | 90 | 1007.1 |
| 20260831165003 | 16 | 271 | 0.0 | 3.2 | 0.00 | 2.41 | 2.34 | 90 | 1007.1 |
| 20260831164504 | 17 | 271 | 1.6 | 3.2 | 0.00 | 2.41 | 2.34 | 91 | 1007.1 |
| 20260831164007 | 17 | 271 | 0.0 | 3.2 | 0.00 | 2.41 | 2.34 | 90 | 1007.1 |
| 20260831163504 | 17 | 271 | 1.6 | 4.8 | 0.00 | 2.41 | 2.34 | 90 | 1007.3 |
| 20260831163003 | 17 | 222 | 1.6 | 4.8 | 0.00 | 2.41 | 2.34 | 90 | 1007.4 |
| 20260831162507 | 17 | 211 | 1.6 | 4.8 | 0.00 | 2.41 | 2.34 | 89 | 1007.4 |
| 20260831162004 | 17 | 218 | 1.6 | 4.8 | 0.00 | 2.39 | 2.31 | 89 | 1007.2 |
| 20260831161505 | 17 | 215 | 3.2 | 4.8 | 0.00 | 2.39 | 2.31 | 88 | 1007.0 |
| 20260831161002 | 17 | 205 | 3.2 | 4.8 | 0.00 | 2.39 | 2.31 | 89 | 1006.9 |
| 20260831160504 | 17 | 167 | 1.6 | 4.8 | 0.00 | 2.39 | 2.31 | 89 | 1006.8 |
| 20260831160005 | 17 | 153 | 3.2 | 4.8 | 0.00 | 2.39 | 2.31 | 88 | 1006.8 |
| 20260831155504 | 17 | 182 | 1.6 | 6.4 | 0.00 | 2.39 | 2.31 | 87 | 1007.0 |
| 20260831155004 | 17 | 186 | 3.2 | 12.9 | 0.00 | 2.39 | 2.31 | 89 | 1007.1 |
| 20260831154527 | 17 | 246 | 3.2 | 12.9 | 0.00 | 2.39 | 2.31 | 89 | 1007.2 |
| 20260831154005 | 17 | 240 | 4.8 | 9.7 | 0.00 | 2.39 | 2.31 | 89 | 1007.2 |
| 20260831153504 | 17 | 254 | 1.6 | 6.4 | 0.00 | 2.39 | 2.31 | 89 | 1007.1 |
| 20260831153005 | 17 | 284 | 3.2 | 6.4 | 0.00 | 2.39 | 2.31 | 89 | 1007.1 |
| 20260831152504 | 17 | 285 | 0.0 | 4.8 | 0.00 | 2.39 | 2.31 | 89 | 1006.9 |
| 20260831152010 | 18 | 283 | 3.2 | 6.4 | 0.00 | 2.39 | 2.31 | 90 | 1007.0 |
| 20260831151505 | 18 | 277 | 3.2 | 6.4 | 0.00 | 2.57 | 2.31 | 89 | 1007.0 |
| 20260831151006 | 18 | 263 | 4.8 | 6.4 | 0.00 | 2.57 | 2.31 | 89 | 1006.9 |
| 20260831150504 | 18 | 253 | 3.2 | 6.4 | 0.00 | 2.57 | 2.31 | 90 | 1007.0 |
| 20260831150005 | 18 | 254 | 3.2 | 6.4 | 0.00 | 2.57 | 2.31 | 88 | 1006.9 |
| 20260831145503 | 18 | 261 | 1.6 | 6.4 | 0.00 | 2.72 | 2.31 | 89 | 1007.0 |
| 20260831145003 | 18 | 250 | 3.2 | 9.7 | 0.00 | 2.95 | 2.31 | 86 | 1007.1 |
| 20260831144507 | 18 | 267 | 3.2 | 14.5 | 0.00 | 3.17 | 2.31 | 86 | 1007.0 |
| 20260831144006 | 18 | 255 | 6.4 | 14.5 | 0.00 | 3.28 | 2.31 | 85 | 1007.0 |
| 20260831143503 | 19 | 206 | 4.8 | 12.9 | 0.00 | 3.30 | 2.31 | 86 | 1007.0 |
| 20260831143007 | 19 | 223 | 6.4 | 12.9 | 0.00 | 3.30 | 2.31 | 87 | 1006.9 |
| 20260831142505 | 19 | 176 | 3.2 | 14.5 | 0.00 | 3.30 | 2.31 | 87 | 1006.9 |
| 20260831142008 | 19 | 215 | 4.8 | 14.5 | 0.00 | 3.30 | 2.31 | 88 | 1007.0 |
| 20260831141508 | 19 | 185 | 4.8 | 9.7 | 0.00 | 3.30 | 2.31 | 88 | 1007.0 |
| 20260831141006 | 19 | 71 | 0.0 | 3.2 | 0.00 | 3.30 | 2.31 | 90 | 1007.0 |
| 20260831140506 | 19 | 71 | 0.0 | 4.8 | 0.00 | 3.30 | 2.31 | 90 | 1007.1 |
| 20260831140005 | 18 | 71 | 3.2 | 4.8 | 0.28 | 3.33 | 2.31 | 90 | 1007.1 |
| 20260831135505 | 18 | 104 | 0.0 | 4.8 | 0.89 | 3.35 | 2.31 | 92 | 1007.1 |
| 20260831135006 | 18 | 90 | 1.6 | 9.7 | 1.60 | 3.35 | 2.31 | 91 | 1007.1 |
| 20260831134509 | 17 | 107 | 3.2 | 12.9 | 1.63 | 3.35 | 2.31 | 91 | 1007.0 |
| 20260831134010 | 17 | 147 | 4.8 | 12.9 | 1.63 | 3.35 | 2.31 | 90 | 1007.0 |
| 20260831133506 | 17 | 159 | 8.0 | 12.9 | 1.63 | 3.35 | 2.31 | 90 | 1006.9 |
| 20260831133022 | 17 | 151 | 6.4 | 14.5 | 1.63 | 3.35 | 2.31 | 91 | 1006.8 |
| 20260831132509 | 17 | 124 | 8.0 | 14.5 | 1.63 | 3.35 | 2.31 | 91 | 1006.9 |
| 20260831132009 | 17 | 98 | 4.8 | 12.9 | 1.63 | 3.35 | 2.31 | 92 | 1007.0 |
| 20260831131508 | 17 | 109 | 8.0 | 12.9 | 1.63 | 3.35 | 2.31 | 90 | 1007.1 |
| 20260831131012 | 16 | 120 | 4.8 | 14.5 | 1.63 | 3.35 | 2.31 | 91 | 1007.2 |
| 20260831130507 | 15 | 185 | 1.6 | 32.2 | 1.63 | 3.35 | 2.31 | 89 | 1007.4 |
| 20260831130007 | 15 | 181 | 14.5 | 32.2 | 1.32 | 3.05 | 2.01 | 88 | 1008.1 |
| 20260831125506 | 16 | 148 | 14.5 | 27.4 | 0.74 | 2.44 | 1.40 | 91 | 1007.5 |
| 20260831125011 | 17 | 219 | 8.0 | 17.7 | 0.00 | 1.73 | 0.69 | 91 | 1007.5 |
| 20260831124508 | 17 | 133 | 6.4 | 17.7 | 0.00 | 1.70 | 0.66 | 91 | 1007.0 |
| 20260831124007 | 17 | 112 | 8.0 | 19.3 | 0.00 | 1.70 | 0.66 | 91 | 1007.2 |
| 20260831123507 | 17 | 130 | 11.3 | 19.3 | 0.00 | 1.70 | 0.66 | 91 | 1007.2 |
| 20260831123014 | 17 | 134 | 11.3 | 20.9 | 0.00 | 1.70 | 0.66 | 92 | 1007.2 |
| 20260831122507 | 17 | 111 | 9.7 | 20.9 | 0.00 | 1.70 | 0.66 | 91 | 1007.1 |
| 20260831122008 | 17 | 118 | 8.0 | 17.7 | 0.00 | 1.70 | 0.66 | 91 | 1007.3 |
| 20260831121507 | 17 | 169 | 6.4 | 19.3 | 0.00 | 1.70 | 0.66 | 92 | 1007.2 |
| 20260831121006 | 17 | 143 | 11.3 | 19.3 | 0.00 | 1.70 | 0.66 | 91 | 1007.3 |
| 20260831120503 | 17 | 140 | 9.7 | 17.7 | 0.00 | 1.70 | 0.66 | 91 | 1007.3 |
| 20260831120009 | 17 | 111 | 6.4 | 17.7 | 0.08 | 1.70 | 0.66 | 91 | 1007.3 |
| 20260831115506 | 18 | 122 | 6.4 | 17.7 | 0.20 | 1.70 | 0.66 | 90 | 1007.3 |
| 20260831115012 | 18 | 146 | 8.0 | 16.1 | 0.51 | 1.70 | 0.66 | 89 | 1007.3 |
| 20260831114510 | 18 | 92 | 6.4 | 16.1 | 0.56 | 1.70 | 0.66 | 89 | 1007.4 |
| 20260831114009 | 18 | 82 | 8.0 | 12.9 | 0.56 | 1.70 | 0.66 | 89 | 1007.3 |
| 20260831113510 | 18 | 138 | 6.4 | 12.9 | 0.56 | 1.70 | 0.66 | 91 | 1007.3 |